Regional Weather Roundup
Issued by NWS New Orleans/Baton Rouge, LA

Home | Current Version | Previous Version | Graphics & Text | Print | Product List | Glossary On
Versions: 1 2 3 4 5 6 7 8 9 10 11 12 13 14 15 16 17 18 19 20 21 22 23 24 25 26 27 28 29 30 31 32 33 34 35 36 37 38 39 40 41 42 43 44 45 46 47 48 49 50
466
ASUS44 KLIX 270810
RWRLIX
NEW ORLEANS REGIONAL WEATHER ROUNDUP
NATIONAL WEATHER SERVICE NEW ORLEANS LA
200 AM CST FRI FEB 27 2015

NOTE: "FAIR" INDICATES FEW OR NO CLOUDS BELOW 12,000 FEET WITH NO
      SIGNIFICANT WEATHER AND/OR OBSTRUCTIONS TO VISIBILITY.
      SKY/WX - SKY CONDITION AND SIGNIFICANT WEATHER.
      TMP - AIR TEMPERATURE.     DP    - DEWPOINT TEMPERATURE.
      RH  - RELATIVE HUMIDITY.   PRES  - PRESSURE.
      HI  - HEAT INDEX.          WCI   - WIND CHILL INDEX.

*  THESE STATIONS ARE NOT NWS OR FAA STATIONS AND ARE NOT UNDER
   NWS QUALITY CONTROL.

LAZ038-040-048-061>063-065>067-069-270900-
SOUTHEAST LOUISIANA

CITY           SKY/WX    TMP DP  RH WIND       PRES   REMARKS
N.O. AUDUBON   NOT AVBL
N.O. INTL ARPT MOCLDY    38  31  76 N16       30.32R WCI  29
N.O. LAKEFRONT MOCLDY    39  32  76 N17       30.32R WCI  30
SLIDELL        CLEAR     34  30  85 N12       30.31R WCI  25
BATON ROUGE    CLOUDY    36  30  79 N9        30.34R WCI  29
BOOTHVILLE     CLOUDY    46  36  68 N12G23    30.27R
BELLE CHASSE   MOCLDY    39  31  72 N10       30.31R WCI  32
BOGALUSA*        N/A     34  30  84 N5        30.34R WCI  30
GALLIANO*      MOSUNNY   42  36  77 N10G18    30.30R
NEW ROADS*     CLOUDY    36  31  81 N9        30.35S WCI  29
GONZALES*      CLOUDY    36  32  85 N5        30.33R WCI  32
HAMMOND*       PTCLDY    34  28  80 N6        30.35R WCI  29
HOUMA*         PTCLDY    37  33  87 N9        30.30R WCI  30
PORT FOURCHON* SUNNY     45  37  76 N16G22    30.31R

$$

MSZ070-080>082-270900-
SOUTHERN MISSISSIPPI

CITY           SKY/WX    TMP DP  RH WIND       PRES   REMARKS
MCCOMB         CLOUDY    35  29  78 N9        30.33R WCI  28
GULFPORT       PTCLDY    35  29  78 N12       30.30R WCI  27
BILOXI         PTCLDY    37  32  84 N13G18    30.30R WCI  28
PASCAGOULA     PTCLDY    37  30  75 N13       30.30R WCI  29

$$

COASTAL OBSERVATIONS
LAKE AND NEARSHORE STATIONS

STATION/POSITION TIME  TEMP    WIND        PRES    WAVE
                       AIR SEA DIR/SP/G            HT/PER
                 (UTC) (F)     (DEG/KT/KT) (MB)    (FT/S)
PASCAGOULA       0800   38     360/ 10/ 14 1025.1
WAVELAND YACHT   0800   36 48  360/ 15/ 19 1026.0
GRAND ISLE       0800   44 52   30/ 20/ 22 1025.3
SOUTHWEST PASS   0800   50 49   20/ 19/ 21 1024.0
NEW CANAL        0800           20/ 15/ 18 1026.7
SHELL BEACH      0800   39 50   10/ 20/ 24 1026.1

OFFSHORE STATIONS

STATION/POSITION TIME  TEMP    WIND        PRES    WAVE
                       AIR SEA DIR/SP/G            HT/PER
                 (UTC) (F)     (DEG/KT/KT) (MB)    (FT/S)
64 S DAUPHIN ISL 0737   50 64   40/ 19/ 25 1023.3    5/ 6

$$




USA.gov is the U.S. government's official web portal to all federal, state and local government web resources and services.